| time (UTC) | temp F | wind direction | speed knots | gust knots | rain 1hr in | rain 24hr in | rain mn in | humidity % | barometer mb |
| 20260505161541 | 60 | 110 | 1.7 | 11.3 | 0.00 | 0.00 | 0.00 | 90 | 1011.2 |
| 20260505153039 | 62 | 109 | 2.6 | 8.7 | 0.00 | 0.00 | 0.00 | 86 | 1010.4 |
| 20260505151541 | 62 | 109 | 0.0 | 5.2 | 0.00 | 0.00 | 0.00 | 85 | 1010.3 |
| 20260505124533 | 64 | 107 | 0.0 | 0.0 | 0.00 | 0.00 | 0.00 | 84 | 1010.0 |
| 20260505123045 | 63 | 107 | 0.0 | 0.0 | 0.00 | 0.00 | 0.00 | 86 | 1010.1 |
| 20260505121533 | 63 | 107 | 0.0 | 2.6 | 0.00 | 0.00 | 0.00 | 87 | 1010.3 |
| 20260505120037 | 64 | 107 | 0.0 | 0.0 | 0.00 | 0.00 | 0.00 | 86 | 1010.5 |
| 20260505114532 | 64 | 107 | 0.0 | 0.0 | 0.00 | 0.00 | 0.00 | 85 | 1010.7 |
| 20260505113023 | 64 | 107 | 0.0 | 0.0 | 0.00 | 0.00 | 0.00 | 84 | 1010.8 |
| 20260505111523 | 65 | 107 | 0.0 | 0.0 | 0.00 | 0.00 | 0.00 | 83 | 1011.0 |
| 20260505101520 | 64 | 107 | 0.0 | 0.0 | 0.00 | 0.00 | 0.00 | 85 | 1012.0 |
| 20260505100119 | 64 | 107 | 0.0 | 0.0 | 0.00 | 0.00 | 0.00 | 86 | 1012.3 |
| 20260505094517 | 64 | 107 | 0.0 | 0.0 | 0.00 | 0.00 | 0.00 | 86 | 1012.5 |
| 20260505093016 | 65 | 107 | 0.0 | 0.0 | 0.00 | 0.00 | 0.00 | 86 | 1012.8 |
| 20260505091513 | 63 | 107 | 0.0 | 0.0 | 0.00 | 0.00 | 0.00 | 88 | 1013.1 |
| 20260505090012 | 62 | 107 | 0.0 | 0.0 | 0.00 | 0.00 | 0.00 | 89 | 1013.3 |
| 20260505084514 | 62 | 107 | 0.0 | 0.0 | 0.00 | 0.00 | 0.00 | 90 | 1013.6 |
| 20260505083013 | 62 | 107 | 0.0 | 0.0 | 0.00 | 0.00 | 0.00 | 89 | 1013.7 |
| 20260505081510 | 63 | 107 | 0.0 | 0.0 | 0.00 | 0.00 | 0.00 | 90 | 1013.9 |
| 20260505080006 | 62 | 107 | 0.0 | 0.0 | 0.00 | 0.00 | 0.00 | 92 | 1014.1 |
| 20260505074503 | 61 | 107 | 0.0 | 7.0 | 0.00 | 0.00 | 0.00 | 92 | 1014.0 |
| 20260505073002 | 60 | 107 | 0.0 | 0.0 | 0.00 | 0.00 | 0.00 | 93 | 1014.0 |
| 20260505071600 | 59 | 107 | 0.0 | 0.0 | 0.00 | 0.00 | 0.00 | 92 | 1014.1 |
| 20260505070100 | 59 | 107 | 5.2 | 7.8 | 0.00 | 0.00 | 0.00 | 93 | 1014.0 |
| 20260505064558 | 59 | 107 | 0.0 | 0.0 | 0.00 | 0.00 | 0.00 | 93 | 1014.1 |
| 20260505063100 | 58 | 107 | 0.0 | 0.0 | 0.00 | 0.00 | 0.00 | 93 | 1013.9 |
| 20260505061601 | 58 | 107 | 0.0 | 0.0 | 0.00 | 0.00 | 0.00 | 94 | 1014.0 |
| 20260505060053 | 57 | 107 | 0.0 | 0.0 | 0.00 | 0.00 | 0.00 | 93 | 1013.7 |
| 20260505054556 | 57 | 107 | 0.0 | 0.0 | 0.00 | 0.00 | 0.00 | 94 | 1013.7 |
| 20260505053050 | 57 | 107 | 0.0 | 2.6 | 0.00 | 0.00 | 0.00 | 94 | 1013.3 |
| 20260505051549 | 56 | 107 | 0.0 | 3.5 | 0.00 | 0.00 | 0.00 | 94 | 1012.8 |
| 20260505050120 | 55 | 107 | 2.6 | 7.0 | 0.00 | 0.00 | 0.00 | 94 | 1012.4 |
| 20260505041553 | 55 | 107 | 0.0 | 0.0 | 0.00 | 0.00 | 0.00 | 93 | 1011.8 |
| 20260505040053 | 56 | 107 | 0.0 | 0.9 | 0.00 | 0.00 | 0.00 | 94 | 1011.7 |
| 20260505034543 | 55 | 107 | 0.0 | 0.9 | 0.00 | 0.00 | 0.00 | 94 | 1011.6 |
| 20260505033046 | 56 | 107 | 0.0 | 2.6 | 0.00 | 0.00 | 0.00 | 94 | 1011.5 |
| 20260505031547 | 55 | 107 | 0.0 | 5.2 | 0.00 | 0.00 | 0.00 | 94 | 1011.4 |
| 20260505030043 | 55 | 107 | 0.9 | 3.5 | 0.00 | 0.00 | 0.00 | 94 | 1011.3 |
| 20260505024541 | 55 | 107 | 0.9 | 11.3 | 0.00 | 0.00 | 0.00 | 94 | 1011.2 |
| 20260505023044 | 55 | 107 | 1.7 | 9.6 | 0.00 | 0.00 | 0.00 | 94 | 1011.1 |
| 20260505021541 | 55 | 107 | 3.5 | 10.4 | 0.00 | 0.00 | 0.00 | 94 | 1011.0 |
| 20260505020036 | 55 | 110 | 2.6 | 11.3 | 0.00 | 0.00 | 0.00 | 94 | 1010.8 |
| 20260505014536 | 55 | 117 | 2.6 | 11.3 | 0.00 | 0.00 | 0.00 | 93 | 1011.0 |
| 20260505013028 | 56 | 117 | 0.9 | 6.1 | 0.00 | 0.00 | 0.00 | 93 | 1010.8 |
| 20260505011531 | 56 | 117 | 0.0 | 5.2 | 0.00 | 0.00 | 0.00 | 93 | 1011.0 |
| 20260505010025 | 56 | 117 | 0.0 | 6.1 | 0.00 | 0.00 | 0.00 | 93 | 1010.9 |
| 20260505004533 | 57 | 117 | 0.0 | 3.5 | 0.00 | 0.00 | 0.00 | 93 | 1011.1 |
| 20260505003023 | 57 | 117 | 0.0 | 0.0 | 0.00 | 0.00 | 0.00 | 93 | 1011.1 |
| 20260505001523 | 57 | 117 | 0.0 | 0.0 | 0.00 | 0.00 | 0.00 | 93 | 1011.2 |
| 20260505000028 | 57 | 117 | 0.0 | 0.0 | 0.00 | 0.00 | 0.00 | 93 | 1011.1 |
| 20260504234521 | 57 | 117 | 0.0 | 0.0 | 0.00 | 0.00 | 0.00 | 93 | 1011.1 |
| 20260504233021 | 57 | 117 | 0.0 | 0.9 | 0.00 | 0.00 | 0.00 | 93 | 1010.9 |
| 20260504231519 | 57 | 117 | 0.0 | 0.0 | 0.00 | 0.00 | 0.00 | 93 | 1011.1 |
| 20260504230019 | 57 | 117 | 0.0 | 1.7 | 0.00 | 0.00 | 0.00 | 93 | 1011.4 |
| 20260504224514 | 58 | 117 | 0.0 | 1.7 | 0.00 | 0.00 | 0.00 | 92 | 1011.5 |
| 20260504223012 | 58 | 117 | 0.0 | 0.0 | 0.00 | 0.00 | 0.00 | 92 | 1011.8 |
| 20260504221516 | 58 | 117 | 0.0 | 0.0 | 0.00 | 0.00 | 0.00 | 93 | 1011.9 |
| 20260504220009 | 58 | 117 | 0.0 | 0.9 | 0.00 | 0.00 | 0.00 | 92 | 1012.0 |
| 20260504214511 | 59 | 117 | 0.0 | 0.0 | 0.00 | 0.00 | 0.00 | 92 | 1012.2 |
| 20260504213020 | 59 | 117 | 0.0 | 0.0 | 0.00 | 0.00 | 0.00 | 92 | 1012.4 |
| 20260504211506 | 59 | 117 | 0.0 | 0.9 | 0.00 | 0.00 | 0.00 | 92 | 1012.5 |
| 20260504210059 | 59 | 117 | 0.0 | 1.7 | 0.00 | 0.00 | 0.00 | 92 | 1012.5 |
| 20260504204558 | 59 | 117 | 0.0 | 0.0 | 0.00 | 0.00 | 0.00 | 92 | 1012.5 |
| 20260504203120 | 59 | 117 | 0.0 | 0.9 | 0.00 | 0.00 | 0.00 | 92 | 1012.6 |
| 20260504201558 | 59 | 117 | 0.0 | 2.6 | 0.00 | 0.00 | 0.00 | 92 | 1012.7 |
| 20260504200058 | 60 | 117 | 0.0 | 0.0 | 0.00 | 0.00 | 0.00 | 92 | 1012.9 |
| 20260504194606 | 60 | 117 | 0.0 | 0.0 | 0.00 | 0.00 | 0.00 | 92 | 1013.0 |
| 20260504193109 | 60 | 117 | 0.0 | 0.0 | 0.00 | 0.00 | 0.00 | 92 | 1013.0 |
| 20260504191555 | 60 | 117 | 0.0 | 0.0 | 0.00 | 0.00 | 0.00 | 92 | 1012.9 |
| 20260504190114 | 60 | 117 | 0.0 | 0.0 | 0.00 | 0.00 | 0.00 | 92 | 1012.8 |
| 20260504184606 | 60 | 117 | 0.0 | 0.0 | 0.00 | 0.00 | 0.00 | 92 | 1012.8 |
| 20260504183057 | 60 | 117 | 0.0 | 0.0 | 0.00 | 0.00 | 0.00 | 92 | 1012.5 |
| 20260504181554 | 60 | 117 | 0.0 | 0.9 | 0.00 | 0.00 | 0.00 | 92 | 1012.2 |
| 20260504180054 | 60 | 117 | 0.0 | 2.6 | 0.00 | 0.00 | 0.00 | 92 | 1012.1 |
| 20260504174602 | 60 | 117 | 0.0 | 0.0 | 0.00 | 0.00 | 0.00 | 91 | 1012.0 |
| 20260504173057 | 61 | 117 | 0.0 | 0.0 | 0.00 | 0.00 | 0.00 | 91 | 1012.1 |
| 20260504171552 | 61 | 117 | 0.0 | 0.0 | 0.00 | 0.00 | 0.00 | 91 | 1012.0 |